DateTime,F1_A11,F1_S11,BsB_S11,BsG_S11,BsR_S11,BbsB_S11,BbsG_S11,BbsR_S11,BaB_A11,BaG_A11,BaR_A11,T_S11,U_S11,P_S11,T1_A11
2016-03-26T00:00:00Z,0000388,21000608,,,,,,,,,,26.0,00.0,0642.6,34.6
2016-03-26T00:01:00Z,0000388,21000608,,,,,,,,,,26.0,00.0,0642.6,34.6
2016-03-26T00:02:00Z,0000388,21000608,,,,,,,,,,26.0,00.0,0642.6,34.6
2016-03-26T00:03:00Z,0000388,61000608,,,,,,,,,,26.0,00.0,0642.6,34.6
2016-03-26T00:04:00Z,0000388,41000608,-001.11,0000.00,0000.24,0000.39,0000.02,0000.21,-000.11,0000.10,-000.09,26.0,00.0,0643.2,34.6
2016-03-26T00:05:00Z,0000388,01000608,-000.24,0000.09,0000.14,0000.13,-000.41,-000.11,-000.09,-000.18,-000.18,26.0,00.0,0643.3,34.6
2016-03-26T00:06:00Z,0000388,01000608,0000.93,0000.00,0000.54,0000.10,-000.07,0000.11,0000.17,-000.04,0000.49,26.0,00.0,0643.3,34.6
2016-03-26T00:07:00Z,0000388,01000608,-000.79,0000.08,0000.07,-000.48,-000.08,-000.16,-000.20,0000.07,0000.16,26.0,00.0,0643.3,34.6
2016-03-26T00:08:00Z,0000388,01000608,0000.74,-000.44,-000.02,-000.59,-000.25,-000.07,0000.10,0000.07,-000.25,26.0,00.0,0643.3,34.6
2016-03-26T00:09:00Z,0000388,01000608,-001.00,0000.13,0000.76,-000.33,-000.28,-000.13,0000.03,0000.02,0000.23,26.1,00.0,0643.2,34.6
2016-03-26T00:10:00Z,0000388,01000608,0000.21,-000.22,0000.33,-000.23,0000.23,-000.48,0000.06,0000.02,-000.08,26.1,00.0,0643.2,34.6
2016-03-26T00:11:00Z,0000388,01000608,0000.45,-000.06,-000.22,0000.46,-000.49,-000.18,0000.07,0000.13,-000.16,26.1,00.0,0643.2,34.6
2016-03-26T00:12:00Z,0000388,01000608,0000.13,-000.65,0000.75,-000.30,-000.60,0000.10,0000.00,-000.04,0000.29,26.1,00.0,0643.2,34.6
2016-03-26T00:13:00Z,0000388,01000608,-000.06,0000.15,0000.53,-000.61,-000.18,0000.26,-000.11,-000.03,-000.41,26.1,00.0,0643.2,34.6
2016-03-26T00:14:00Z,0000388,01000608,0000.13,0000.32,0000.53,-000.66,0000.07,-000.30,0000.23,0000.06,0000.36,26.1,00.0,0643.2,34.6
2016-03-26T00:15:00Z,0000388,01000608,-000.17,0000.96,0000.08,0000.02,-000.51,0000.35,0000.13,0000.22,0000.11,26.1,00.0,0643.2,34.6
2016-03-26T00:16:00Z,0000388,01000608,0000.69,0000.42,0000.09,-000.10,-000.67,-000.08,-000.15,0000.06,-000.20,26.1,00.0,0643.2,34.6
2016-03-26T00:17:00Z,0000388,01000608,-000.12,-000.05,0000.84,-000.15,-000.21,0000.12,0000.40,0000.20,0000.22,26.1,00.0,0643.2,34.6
2016-03-26T00:18:00Z,0000388,01000608,0000.35,-000.24,0000.56,-000.15,0000.23,0000.15,0000.03,-000.08,0000.28,26.1,00.0,0643.2,34.6
2016-03-26T00:19:00Z,0000388,01000608,0000.96,0000.83,0000.70,-000.26,-000.36,0000.05,0000.10,0000.11,-000.18,26.1,00.0,0643.2,34.6
2016-03-26T00:20:00Z,0000388,01000608,0001.25,0000.99,0000.92,0000.20,-000.20,-000.13,0000.06,0000.13,0000.07,26.1,00.0,0643.2,34.6
2016-03-26T00:21:00Z,0000388,01000608,0000.40,0000.74,0000.59,-000.05,0000.02,0000.08,0000.22,0000.17,-000.07,26.1,00.0,0643.2,34.6
2016-03-26T00:22:00Z,0000388,01000608,0000.16,0000.10,-000.04,0000.11,-000.25,0000.10,0000.08,0000.01,0000.19,26.1,00.0,0643.2,34.6
2016-03-26T00:23:00Z,0000388,01000608,-001.20,0001.45,0000.59,-000.25,0000.16,0000.12,0000.18,0000.27,0000.31,26.1,00.0,0643.2,34.6
2016-03-26T00:24:00Z,0000388,01000608,0000.52,0001.33,0000.25,0000.18,0000.20,-000.30,0000.02,-000.00,0000.23,26.1,00.0,0643.2,34.6
2016-03-26T00:25:00Z,0000388,01000608,-000.48,0000.98,0000.43,-000.56,0000.28,-000.15,0000.26,0000.32,-000.05,26.1,00.0,0643.2,34.6
2016-03-26T00:26:00Z,0000388,01000608,0000.95,0000.19,0000.90,0000.84,-000.03,0000.05,0000.05,-000.13,0000.28,26.1,00.0,0643.2,34.6
2016-03-26T00:27:00Z,0000388,01000608,0000.82,0000.47,0000.64,-000.43,-000.49,0000.07,0000.03,0000.06,-000.24,26.1,00.0,0643.2,34.6
2016-03-26T00:28:00Z,0000388,01000608,-000.16,-000.65,0000.98,-000.03,-000.25,0000.16,0000.26,0000.11,0000.16,26.2,00.0,0643.2,34.6
2016-03-26T00:29:00Z,0000388,01000608,0000.36,0000.62,-000.10,0000.49,0000.05,-000.02,0000.00,0000.22,0000.22,26.2,00.0,0643.2,34.6
2016-03-26T00:30:00Z,0000388,01000608,0000.42,0000.15,0000.82,-000.49,0000.10,0000.49,0000.29,-000.01,-000.12,26.2,00.0,0643.3,34.6
2016-03-26T00:31:00Z,0000388,01000608,0000.98,0000.02,0000.59,-000.05,0000.03,0000.30,-000.13,0000.15,0000.23,26.2,00.0,0643.3,34.6
2016-03-26T00:32:00Z,0000388,01000608,0000.23,0000.30,0000.60,0000.71,0000.00,-000.16,0000.30,0000.19,0000.18,26.2,00.0,0643.3,34.6
2016-03-26T00:33:00Z,0000388,01000608,0001.10,0000.23,0000.02,-000.18,-000.44,-000.51,0000.20,0000.02,-000.13,26.2,00.0,0643.3,34.6
2016-03-26T00:34:00Z,0000388,01000608,0001.03,0001.08,0000.41,-000.13,0000.20,-000.16,0000.05,0000.13,0000.07,26.2,00.0,0643.3,34.6
2016-03-26T00:35:00Z,0000388,01000608,0000.00,-000.12,0000.73,0000.20,0000.13,-000.10,0000.05,0000.19,0000.04,26.2,00.0,0643.3,34.6
2016-03-26T00:36:00Z,0000388,01000608,0001.23,0001.56,0000.42,-000.36,0000.51,-000.02,0000.32,0000.14,0000.15,26.2,00.0,0643.3,34.6
2016-03-26T00:37:00Z,0000388,01000608,0001.23,0000.95,-000.15,-000.67,-000.51,0000.02,0000.14,0000.24,0000.14,26.2,00.0,0643.3,34.6
2016-03-26T00:38:00Z,0000388,01000608,0000.43,0001.02,0001.01,-001.18,0000.08,0000.15,0000.09,-000.06,-000.14,26.2,00.0,0643.4,34.6
2016-03-26T00:39:00Z,0000388,01000608,0001.42,0001.03,0000.71,0000.11,-000.13,-000.02,0000.37,0000.29,0000.40,26.2,00.0,0643.4,34.6
2016-03-26T00:40:00Z,0000388,01000608,0000.73,0000.93,0000.29,-000.18,0000.20,-000.26,0000.04,0000.23,0000.36,26.2,00.0,0643.4,34.6
2016-03-26T00:41:00Z,0000388,01000608,0001.79,0001.04,0000.97,0000.13,0000.38,0000.36,0000.10,0000.21,-000.19,26.2,00.0,0643.4,34.6
2016-03-26T00:42:00Z,0000388,01000608,0001.67,0001.27,0000.60,-000.20,0000.16,0000.12,0000.27,-000.08,0000.01,26.2,00.0,0643.4,34.6
2016-03-26T00:43:00Z,0000388,01000608,0001.71,0000.55,0001.38,-000.11,0000.28,0000.21,0000.10,0000.23,0000.43,26.2,00.0,0643.4,34.6
2016-03-26T00:44:00Z,0000388,01000608,0000.37,0001.14,0000.68,0000.00,0000.31,0000.41,0000.04,0000.07,-000.14,26.2,00.0,0643.4,34.6
2016-03-26T00:45:00Z,0000388,01000608,0001.18,0001.04,0000.71,0000.48,0000.15,-000.41,0000.18,0000.20,-000.06,26.2,00.0,0643.4,34.6
2016-03-26T00:46:00Z,0000388,01000608,0000.95,0000.98,0000.58,-000.18,0000.16,-000.28,0000.28,0000.06,0000.41,26.2,00.0,0643.4,34.6
2016-03-26T00:47:00Z,0000388,01000608,0001.21,0000.66,0000.89,-000.34,-000.42,-000.08,0000.25,0000.15,0000.01,26.2,00.0,0643.4,34.6
2016-03-26T00:48:00Z,0000388,01000608,0001.22,0001.32,0001.14,0000.38,0000.10,0000.53,0000.63,0000.58,0000.37,26.2,00.0,0643.6,34.6
2016-03-26T00:49:00Z,0000388,01000608,0000.59,0000.53,0000.87,0000.43,0000.56,0000.18,-000.00,0000.25,0000.27,26.2,00.0,0643.7,34.6
2016-03-26T00:50:00Z,0000388,01000608,0001.51,0001.27,0000.94,-000.16,0000.03,0000.62,0000.19,0000.07,0000.38,26.2,00.0,0643.7,34.6
2016-03-26T00:51:00Z,0000388,01000608,0002.21,0000.77,0001.19,-000.18,0000.54,0000.03,0000.43,0000.45,-000.20,26.2,00.0,0643.7,34.6
2016-03-26T00:52:00Z,0000388,01000608,0001.32,0000.93,0000.69,-000.18,0000.29,-000.39,0000.06,0000.02,0000.05,26.2,00.0,0643.6,34.6
2016-03-26T00:53:00Z,0000388,01000608,0000.88,0001.28,0000.74,-000.11,-000.07,-000.08,0000.28,0000.07,0000.49,26.2,00.0,0643.6,34.6
2016-03-26T00:54:00Z,0000388,01000608,0001.11,0000.85,0000.15,-000.02,0000.28,-000.20,0000.12,0000.14,-000.12,26.2,00.0,0643.6,34.6
2016-03-26T00:55:00Z,0000388,01000608,0001.92,0001.13,0000.64,0000.33,0000.26,0000.31,0000.19,0000.41,0000.33,26.2,00.0,0643.6,34.6
2016-03-26T00:56:00Z,0000388,01000608,0000.69,0000.69,0001.36,-000.56,-000.10,-000.07,0000.29,0000.02,-000.04,26.2,00.0,0643.6,34.6
2016-03-26T00:57:00Z,0000388,41000608,,,,,,,,,,,,0643.7,34.6
2016-03-26T00:58:00Z,0000388,61000608,,,,,,,,,,26.0,00.0,0642.9,34.6
2016-03-26T00:59:00Z,0000388,21000608,,,,,,,,,,26.0,00.0,0642.9,34.6
2016-03-26T01:00:00Z,0000388,21000608,,,,,,,,,,26.0,00.0,0642.9,34.6
2016-03-26T01:01:00Z,0000388,21000608,,,,,,,,,,26.0,00.0,0642.9,34.6
2016-03-26T01:02:00Z,0000388,21000608,,,,,,,,,,26.0,00.0,0642.9,34.6
2016-03-26T01:03:00Z,0000388,61000608,,,,,,,,,,26.1,00.0,0642.9,34.6
2016-03-26T01:04:00Z,0000388,41000608,0001.66,0000.89,0001.40,0000.84,0000.11,-000.03,0000.10,0000.33,-000.02,26.2,00.0,0643.6,34.6
2016-03-26T01:05:00Z,0000388,01000608,0001.63,0001.20,0000.73,0000.08,-000.05,-000.05,0000.29,-000.04,-000.14,26.2,00.0,0643.7,34.6
2016-03-26T01:06:00Z,0000388,01000608,0002.02,0002.51,0001.42,0000.08,0000.36,-000.10,0000.18,0000.31,0000.13,26.2,00.0,0643.7,34.6
2016-03-26T01:07:00Z,0000388,01000608,0001.81,0001.17,0000.71,-000.08,0000.52,-000.31,0000.30,0000.11,0000.06,26.2,00.0,0643.7,34.6
2016-03-26T01:08:00Z,0000388,01000608,0003.09,0002.66,0000.68,0000.23,0000.15,0000.08,0000.01,0000.20,0000.22,26.2,00.0,0643.7,34.6
2016-03-26T01:09:00Z,0000388,01000608,0002.59,0001.22,0000.70,0000.25,0000.11,-000.21,0000.08,-000.11,-000.12,26.2,00.0,0643.8,34.6
2016-03-26T01:10:00Z,0000388,01000608,0001.35,0001.35,0001.32,-000.34,0000.15,-000.11,0000.30,0000.26,0000.60,26.2,00.0,0643.8,34.6
2016-03-26T01:11:00Z,0000388,01000608,0003.20,0001.98,0000.48,0000.57,-000.25,-000.38,0000.31,0000.22,0000.02,26.2,00.0,0643.8,34.6
2016-03-26T01:12:00Z,0000388,01000608,0002.09,0001.79,0000.83,0000.11,0000.11,0000.05,0000.18,0000.22,0000.22,26.2,00.0,0643.8,34.6
2016-03-26T01:13:00Z,0000388,01000608,0001.99,0001.21,0000.93,-000.33,-000.34,0000.03,-000.01,0000.09,0000.07,26.2,00.0,0643.8,34.6
2016-03-26T01:14:00Z,0000388,01000608,0002.53,0001.50,0000.86,0000.89,0000.18,0000.48,0000.30,0000.08,0000.03,26.2,00.0,0643.9,34.6
2016-03-26T01:15:00Z,0000388,01000608,0002.82,0001.83,0000.49,0000.11,-000.23,0000.11,0000.12,0000.24,-000.05,26.2,00.0,0643.8,34.6
2016-03-26T01:16:00Z,0000388,01000608,0002.28,0001.83,0000.89,0000.90,0000.08,0000.15,0000.32,0000.11,0000.20,26.2,00.0,0643.8,34.6
2016-03-26T01:17:00Z,0000388,01000608,0002.82,0002.18,0001.09,0000.23,0000.13,-000.18,0000.09,0000.12,0000.34,26.2,00.0,0643.8,34.6
2016-03-26T01:18:00Z,0000388,01000608,0001.54,0000.97,0000.64,0000.08,0000.15,0000.48,0000.36,0000.40,0000.18,26.2,00.0,0643.8,34.6
2016-03-26T01:19:00Z,0000388,01000608,0001.97,0001.86,0000.96,0000.10,0000.44,0000.33,0000.20,0000.05,0000.15,26.2,00.0,0643.9,34.6
2016-03-26T01:20:00Z,0000388,01000608,0001.34,0001.88,0001.22,-000.02,-000.16,0000.43,0000.00,0000.17,-000.02,26.2,00.0,0643.9,34.6
2016-03-26T01:21:00Z,0000388,01000608,0001.73,0001.43,0000.84,0000.11,0000.75,-000.21,0000.23,0000.17,-000.11,26.2,00.0,0643.9,34.6
2016-03-26T01:22:00Z,0000388,01000608,0002.17,0001.16,0001.00,0000.49,0000.26,0000.08,0000.15,0000.15,0000.34,26.2,00.0,0643.9,34.6
2016-03-26T01:23:00Z,0000388,01000608,0002.44,0000.54,0000.88,0000.26,0000.62,0000.07,0000.17,0000.17,0000.20,26.2,00.0,0643.9,34.6
2016-03-26T01:24:00Z,0000388,01000608,0003.76,0001.75,0000.50,-000.34,0000.08,-000.15,0000.25,0000.23,-000.05,26.2,00.0,0643.9,34.6
2016-03-26T01:25:00Z,0000388,01000608,0002.23,0001.57,0000.57,0001.00,0000.16,-000.11,0000.12,0000.15,0000.53,26.2,00.0,0643.9,34.6
2016-03-26T01:26:00Z,0000388,01000608,0003.84,0001.64,0000.65,0000.36,-000.11,0000.07,0000.22,0000.03,-000.43,26.2,00.0,0643.9,34.6
2016-03-26T01:27:00Z,0000388,01000608,0001.91,0002.04,0001.04,0000.92,0000.36,0000.13,0000.18,0000.40,0000.54,26.2,00.0,0643.9,34.6
2016-03-26T01:28:00Z,0000388,01000608,0003.80,0001.30,0000.67,-000.05,0000.26,0000.16,0000.26,-000.11,0000.05,26.2,00.0,0643.9,34.6
2016-03-26T01:29:00Z,0000388,01000608,0002.50,0001.37,0001.06,0000.25,0000.26,-000.15,-000.03,0000.22,0000.12,26.2,00.0,0643.9,34.6
2016-03-26T01:30:00Z,0000388,01000608,0001.78,0001.71,0000.82,0000.16,0000.23,0000.18,0000.28,0000.15,-000.04,26.2,00.0,0644.0,34.6
2016-03-26T01:31:00Z,0000388,01000608,0001.98,0002.40,0000.71,-000.31,0000.16,-000.33,0000.17,0000.14,0000.22,26.2,00.0,0644.0,34.6
2016-03-26T01:32:00Z,0000388,01000608,-000.02,0001.10,0000.43,-000.61,0000.02,-000.23,0000.12,0000.16,-000.13,26.2,00.0,0644.0,34.6
2016-03-26T01:33:00Z,0000388,01000608,0002.03,0000.81,0000.86,-000.11,-000.05,-000.34,0000.09,-000.01,0000.47,26.2,00.0,0644.1,34.6
2016-03-26T01:34:00Z,0000388,01000608,0001.76,0001.32,0000.60,0000.36,-000.49,0000.25,0000.13,0000.04,-000.46,26.2,00.0,0644.1,34.6
2016-03-26T01:35:00Z,0000388,01000608,0002.02,0001.95,0001.16,-000.48,0000.08,-000.08,0000.26,0000.29,0000.32,26.2,00.0,0644.1,34.6
2016-03-26T01:36:00Z,0000388,01000608,0000.08,0001.27,0000.88,-000.23,-000.29,-000.16,0000.15,-000.07,0000.22,26.2,00.0,0644.0,34.6
2016-03-26T01:37:00Z,0000388,01000608,0001.63,0002.35,0001.39,0000.44,-000.03,0000.02,0000.10,0000.33,-000.09,26.2,00.0,0644.1,34.6
2016-03-26T01:38:00Z,0000388,01000608,0001.18,0002.15,0001.12,-000.39,-000.11,0000.08,0000.06,0000.19,0000.27,26.2,00.0,0644.1,34.6
2016-03-26T01:39:00Z,0000388,01000608,0002.14,0001.98,0000.80,0000.23,0000.02,-000.02,0000.36,0000.12,0000.31,26.2,00.0,0644.1,34.6
2016-03-26T01:40:00Z,0000388,01000608,0002.18,0001.78,0001.13,-000.28,0000.51,0000.15,0000.20,0000.38,0000.02,26.2,00.0,0644.1,34.6
2016-03-26T01:41:00Z,0000388,01000608,0002.26,0001.53,0001.32,-000.05,0000.44,-000.08,0000.32,0000.03,0000.27,26.2,00.0,0644.1,34.6
2016-03-26T01:42:00Z,0000388,01000608,0002.82,0001.73,0000.57,0000.21,-000.07,-000.21,0000.13,0000.22,0000.10,26.2,00.0,0644.1,34.6
2016-03-26T01:43:00Z,0000388,01000608,0002.21,0001.48,0001.24,-000.39,0000.10,0000.66,0000.16,0000.13,0000.10,26.2,00.0,0644.1,34.6
2016-03-26T01:44:00Z,0000388,01000608,0001.84,0001.17,0001.24,-000.11,0000.31,-000.20,0000.25,0000.17,0000.04,26.2,00.0,0644.1,34.6
2016-03-26T01:45:00Z,0000388,01000608,0002.71,0000.35,0000.37,0000.80,-000.21,-000.11,0000.13,0000.26,0000.24,26.2,00.0,0644.1,34.6
2016-03-26T01:46:00Z,0000388,01000608,0001.36,0002.47,0000.94,-000.43,0000.36,-000.46,0000.21,0000.04,0000.10,26.2,00.0,0644.1,34.6
2016-03-26T01:47:00Z,0000388,01000608,0002.72,0001.68,0000.68,0000.69,0000.08,0000.16,0000.21,0000.15,0000.05,26.2,00.0,0644.1,34.6
2016-03-26T01:48:00Z,0000388,01000608,0002.76,0001.65,0000.83,0000.87,-000.24,-000.08,0000.25,0000.16,-000.04,26.2,00.0,0644.2,34.6
2016-03-26T01:49:00Z,0000388,01000608,0002.93,0002.09,0001.71,0000.10,0000.23,0000.33,0000.25,0000.26,0000.28,26.2,00.0,0644.2,34.6
2016-03-26T01:50:00Z,0000388,01000608,0002.47,0001.68,0000.72,0000.34,0000.26,0000.39,0000.03,0000.08,-000.01,26.2,00.0,0644.2,34.6
2016-03-26T01:51:00Z,0000388,01000608,0001.70,0000.86,0000.80,0000.38,0000.23,0000.16,0000.12,0000.19,0000.28,26.2,00.0,0644.2,34.6
2016-03-26T01:52:00Z,0000388,01000608,0001.60,0000.39,0000.69,-000.21,-000.62,-000.21,0000.13,0000.03,-000.00,26.2,00.0,0644.2,34.6
2016-03-26T01:53:00Z,0000388,01000608,0002.04,0001.24,0000.62,0000.43,0000.42,-000.08,0000.28,0000.10,0000.42,26.2,00.0,0644.2,34.6
2016-03-26T01:54:00Z,0000388,01000608,0000.88,0001.77,0000.30,-000.08,-000.47,-000.44,0000.11,0000.21,-000.48,26.2,00.0,0644.2,34.6
2016-03-26T01:55:00Z,0000388,01000608,0002.36,0001.12,0000.26,0000.16,-000.07,-000.11,0000.06,0000.08,0000.23,26.2,00.0,0644.2,34.6
2016-03-26T01:56:00Z,0000388,01000608,0001.54,0001.21,0000.72,0000.02,-000.08,0000.03,0000.42,0000.25,0000.06,26.2,00.0,0644.2,34.6
2016-03-26T01:57:00Z,0000388,41000608,,,,,,,,,,,,0644.1,34.6
2016-03-26T01:58:00Z,0000388,61000608,,,,,,,,,,26.0,00.0,0643.5,34.6
2016-03-26T01:59:00Z,0000388,21000608,,,,,,,,,,26.0,00.0,0643.5,34.6
2016-03-26T02:00:00Z,0000388,21000608,,,,,,,,,,26.0,00.0,0643.5,34.7
2016-03-26T02:01:00Z,0000388,21000608,,,,,,,,,,26.0,00.0,0643.5,34.7
2016-03-26T02:02:00Z,0000388,21000608,,,,,,,,,,26.0,00.0,0643.5,34.7
2016-03-26T02:03:00Z,0000388,61000608,,,,,,,,,,26.1,00.0,0643.5,34.7
2016-03-26T02:04:00Z,0000388,41000608,0002.23,0001.05,0001.05,-000.20,0000.05,-000.10,0000.43,0000.29,0000.04,26.2,00.0,0644.2,34.7
2016-03-26T02:05:00Z,0000388,01000608,0000.02,0000.75,0000.88,0000.13,0000.65,0000.28,-000.03,0000.06,0000.10,26.2,00.0,0644.4,34.7
2016-03-26T02:06:00Z,0000388,01000608,0001.49,0000.69,0000.77,-000.70,0000.20,0000.34,0000.55,0000.43,0000.18,26.2,00.0,0644.3,34.7
2016-03-26T02:07:00Z,0000388,01000608,0002.63,0002.53,0000.76,0000.02,-000.08,0000.20,0004.30,0003.77,0003.27,26.2,00.0,0644.4,34.7
2016-03-26T02:08:00Z,0000388,01000608,0002.70,0001.51,0000.66,-000.28,0000.26,0000.15,0002.61,0002.48,0001.92,26.2,00.0,0644.4,34.7
2016-03-26T02:09:00Z,0000388,01000608,0002.78,0001.13,0000.63,-000.23,0000.36,0000.07,0000.47,0000.40,0000.54,26.2,00.0,0644.4,34.7
2016-03-26T02:10:00Z,0000388,01000608,0001.14,0000.91,0000.86,-000.07,-000.23,0000.05,0000.33,0000.23,-000.02,26.2,00.0,0644.4,34.7
2016-03-26T02:11:00Z,0000388,01000608,0000.79,0000.76,0000.76,0000.23,-000.16,-000.23,0000.05,0000.05,-000.17,26.2,00.0,0644.4,34.7
2016-03-26T02:12:00Z,0000388,01000608,0002.24,0001.45,0001.05,0000.03,0000.36,-000.02,0000.28,0000.34,0000.40,26.2,00.0,0644.4,34.7
2016-03-26T02:13:00Z,0000388,01000608,0002.41,0001.06,0000.72,0000.16,-000.07,0000.15,0000.40,0000.06,0000.42,26.2,00.0,0644.5,34.7
2016-03-26T02:14:00Z,0000388,01000608,0001.78,0000.69,-000.12,-000.29,0000.18,0000.18,0000.31,0000.49,0000.21,26.2,00.0,0644.5,34.7
2016-03-26T02:15:00Z,0000388,01000608,0001.63,0001.23,0001.02,0000.34,-000.31,0000.21,0001.34,0001.07,0000.50,26.2,00.0,0644.5,34.6
2016-03-26T02:16:00Z,0000388,01000608,0001.97,0001.87,0001.05,-000.36,-000.05,0000.03,0001.24,0000.99,0001.00,26.2,00.0,0644.5,34.6
2016-03-26T02:17:00Z,0000388,01000608,0000.61,0001.41,0000.98,0000.51,0000.02,-000.11,0000.27,0000.22,0000.29,26.3,00.0,0644.6,34.6
2016-03-26T02:18:00Z,0000388,01000608,0000.84,0001.14,0000.62,0000.41,-000.15,0000.02,0000.33,0000.53,0000.11,26.2,00.0,0644.6,34.6
2016-03-26T02:19:00Z,0000388,01000608,0001.82,0001.54,0000.75,0000.20,0000.07,0000.25,0000.68,0000.44,0000.60,26.2,00.0,0644.7,34.6
2016-03-26T02:20:00Z,0000388,01000608,0002.77,0001.55,0000.53,-000.08,-000.29,0000.07,0001.78,0001.63,0001.59,26.2,00.0,0644.7,34.6
2016-03-26T02:21:00Z,0000388,01000608,0002.40,0001.15,0000.21,-000.26,-000.02,-000.28,0001.90,0001.65,0000.92,26.2,00.0,0644.7,34.6
2016-03-26T02:22:00Z,0000388,01000608,0000.81,0001.73,0000.46,0000.20,0000.36,0000.39,0000.70,0000.67,0000.77,26.2,00.0,0644.8,34.6
2016-03-26T02:23:00Z,0000388,01000608,0002.99,0001.47,0000.88,-000.20,0000.18,0000.21,0000.49,0000.32,0000.15,26.3,00.0,0644.8,34.6
2016-03-26T02:24:00Z,0000388,01000608,0001.98,0001.12,0000.83,0000.56,0000.13,-000.30,0000.08,0000.12,-000.11,26.3,00.0,0644.9,34.6
2016-03-26T02:25:00Z,0000388,01000608,0002.48,0000.81,0000.59,0000.56,-000.08,-000.07,0000.75,0000.67,0000.58,26.3,00.0,0644.9,34.6
2016-03-26T02:26:00Z,0000388,01000608,0002.45,0001.98,0000.63,0000.33,-000.03,0000.31,0001.21,0001.12,0000.88,26.3,00.0,0644.9,34.6
2016-03-26T02:27:00Z,0000388,01000608,0003.76,0002.22,0001.21,0000.21,0000.07,0000.43,0005.38,0004.55,0003.42,26.3,00.0,0645.0,34.6
2016-03-26T02:28:00Z,0000388,01000608,0004.75,0002.20,0001.20,0000.16,-000.10,0000.34,0007.41,0006.77,0005.65,26.3,00.0,0645.0,34.6
2016-03-26T02:29:00Z,0000388,01000608,0002.94,0001.90,0001.55,0000.62,0000.18,0000.66,0003.95,0003.31,0002.56,26.3,00.0,0645.1,34.6
2016-03-26T02:30:00Z,0000388,01000608,0001.87,0001.50,0001.09,-000.02,0000.18,0000.08,0000.40,0000.43,0000.53,26.3,00.0,0645.1,34.6
2016-03-26T02:31:00Z,0000388,01000608,0001.98,0001.66,0000.72,-000.36,0000.15,-000.16,0000.36,0000.33,0000.18,26.3,00.0,0645.2,34.6
2016-03-26T02:32:00Z,0000388,01000608,0002.31,0001.52,-000.09,0000.80,0000.08,-000.28,0000.16,0000.21,0000.09,26.3,00.0,0645.2,34.6
2016-03-26T02:33:00Z,0000388,01000608,0001.74,0001.58,-000.06,0000.44,0000.28,0000.08,0000.10,0000.16,-000.00,26.2,00.0,0645.3,34.6
2016-03-26T02:34:00Z,0000388,01000608,0001.99,0001.26,0000.49,0000.28,-000.05,-000.18,0000.25,0000.25,0000.25,26.2,00.0,0645.3,34.6
2016-03-26T02:35:00Z,0000388,01000608,0001.69,0000.92,0000.79,-000.54,-000.15,0000.31,0000.18,0000.02,0000.16,26.2,00.0,0645.4,34.6
2016-03-26T02:36:00Z,0000388,01000608,0002.45,0001.93,0001.38,-000.15,0000.26,0000.13,0000.20,0000.38,0000.38,26.2,00.0,0645.5,34.6
2016-03-26T02:37:00Z,0000388,01000608,0002.20,0001.59,0000.83,0000.44,0000.07,0000.13,0000.73,0000.60,0000.54,26.2,00.0,0645.5,34.6
2016-03-26T02:38:00Z,0000388,01000608,0002.36,0001.50,0000.71,0000.49,0000.15,0000.39,0000.34,0000.31,-000.13,26.2,00.0,0645.6,34.6
2016-03-26T02:39:00Z,0000388,01000608,0002.26,0001.30,0001.16,0000.39,0000.02,0000.26,0000.32,0000.08,0000.21,26.2,00.0,0645.7,34.6
2016-03-26T02:40:00Z,0000388,01000608,0002.62,0001.50,0000.59,0000.08,0000.28,0000.13,0000.15,0000.28,0000.29,26.2,00.0,0645.8,34.6
2016-03-26T02:41:00Z,0000388,01000608,0002.20,0000.90,0000.66,-000.56,0000.11,0000.08,0000.22,0000.30,0000.16,26.2,00.0,0645.9,34.6
2016-03-26T02:42:00Z,0000388,01000608,0002.17,0001.80,0000.45,0001.03,-000.23,0000.28,0000.18,0000.04,0000.23,26.3,00.0,0646.0,34.6
2016-03-26T02:43:00Z,0000388,01000608,0001.94,0001.56,0000.18,0000.23,0000.18,-000.10,0000.23,0000.17,-000.13,26.2,00.0,0646.1,34.6
2016-03-26T02:44:00Z,0000388,01000608,0002.90,0001.28,0000.81,0000.62,0000.21,0000.26,0000.24,0000.25,0000.36,26.2,00.0,0646.2,34.6
2016-03-26T02:45:00Z,0000388,01000608,0002.81,0001.42,0001.04,0000.52,-000.15,-000.46,-000.10,0000.07,0000.20,26.3,00.0,0646.3,34.6
2016-03-26T02:46:00Z,0000388,01000608,0001.52,0001.16,0000.58,-000.02,0000.03,0000.05,0000.31,0000.18,0000.26,26.3,00.0,0646.4,34.6
2016-03-26T02:47:00Z,0000388,01000608,0003.00,0001.75,0001.05,0000.69,-000.29,0000.38,0000.10,-000.00,-000.31,26.2,00.0,0646.5,34.6
2016-03-26T02:48:00Z,0000388,01000608,0002.24,0001.20,0000.26,-000.02,0000.08,-000.26,0000.27,0000.33,0000.33,26.3,00.0,0646.6,34.6
2016-03-26T02:49:00Z,0000388,01000608,0001.13,0000.98,0000.65,0000.29,0000.42,0000.21,0000.31,0000.10,0000.45,26.3,00.0,0646.7,34.6
2016-03-26T02:50:00Z,0000388,01000608,0001.79,0001.37,0000.52,-000.08,-000.29,-000.28,0000.66,0000.55,-000.15,26.3,00.0,0646.8,34.6
2016-03-26T02:51:00Z,0000388,01000608,0001.85,0001.46,0000.43,-000.03,0000.10,-000.39,0001.47,0001.19,0001.55,26.3,00.0,0646.8,34.6
2016-03-26T02:52:00Z,0000388,01000608,0013.67,0009.66,0006.55,0001.58,0001.27,0001.18,0037.55,0033.00,0025.26,26.3,00.0,0646.9,34.6
2016-03-26T02:53:00Z,0000388,01000608,0013.59,0009.21,0005.55,0002.01,0001.30,0001.10,0046.03,0040.94,0033.01,26.3,00.0,0646.9,34.6
2016-03-26T02:54:00Z,0000388,01000608,0006.01,0004.90,0003.39,0001.22,0000.55,0000.96,0016.68,0014.77,0011.78,26.3,00.0,0647.0,34.6
2016-03-26T02:55:00Z,0000388,01000608,0002.42,0001.73,0000.94,-000.23,0000.63,0000.13,0001.76,0001.53,0001.23,26.3,00.0,0647.0,34.6
2016-03-26T02:56:00Z,0000388,01000608,0001.88,0001.35,0001.11,0000.21,0000.31,0000.18,0000.45,0000.46,0000.26,26.3,00.0,0647.1,34.6
2016-03-26T02:57:00Z,0000388,41000608,,,,,,,,,,,,0647.1,34.6
2016-03-26T02:58:00Z,0000388,61000608,,,,,,,,,,26.1,00.0,0646.4,34.6
2016-03-26T02:59:00Z,0000388,21000608,,,,,,,,,,26.2,00.0,0646.4,34.6
2016-03-26T03:00:00Z,0000388,21000608,,,,,,,,,,26.1,00.0,0646.4,34.6
2016-03-26T03:01:00Z,0000388,21000608,,,,,,,,,,26.0,00.0,0646.4,34.6
2016-03-26T03:02:00Z,0000388,21000608,,,,,,,,,,26.0,00.0,0646.5,34.6
2016-03-26T03:03:00Z,0000388,61000608,,,,,,,,,,26.1,00.0,0646.5,34.6
2016-03-26T03:04:00Z,0000388,41000608,0002.14,0001.19,0001.86,0000.36,0000.62,0000.41,0000.48,0000.21,0000.06,26.3,00.0,0647.4,34.6
2016-03-26T03:05:00Z,0000388,01000608,0001.98,0002.36,0001.01,0000.62,0000.19,0000.44,0000.05,0000.16,0000.19,26.3,00.0,0647.6,34.6
2016-03-26T03:06:00Z,0000388,01000608,0002.47,0002.01,0001.28,0000.75,-000.18,0000.21,0000.36,0000.41,0000.10,26.3,00.0,0647.7,34.6
2016-03-26T03:07:00Z,0000388,01000608,0002.45,0000.81,0001.18,-000.20,-000.11,0000.29,0000.27,0000.11,0000.38,26.3,00.0,0647.7,34.6
2016-03-26T03:08:00Z,0000388,01000608,0002.36,0001.24,0001.22,0000.18,0000.02,-000.10,0000.33,0000.08,0000.10,26.3,00.0,0647.7,34.6
2016-03-26T03:09:00Z,0000388,01000608,0003.14,0001.03,0001.17,0000.18,0000.19,0000.16,0000.22,0000.28,0000.09,26.3,00.0,0647.8,34.6
2016-03-26T03:10:00Z,0000388,01000608,0002.63,0000.91,0001.78,0000.51,0000.21,0000.02,0000.21,0000.20,0000.04,26.3,00.0,0647.8,34.6
2016-03-26T03:11:00Z,0000388,01000608,0002.40,0001.55,0001.68,0000.73,0000.55,0000.38,0000.28,0000.08,0000.33,26.3,00.0,0647.8,34.6
2016-03-26T03:12:00Z,0000388,01000608,0002.19,0001.25,0001.32,0000.38,-000.05,0000.44,0000.24,0000.29,0000.08,26.3,00.0,0647.8,34.6